Location: Unspecified
(0.0000°N, 0.0000°E)
Time: 07:35:28
(UTC+00:00)

Vanguard 2 - Pass Details

Date: 21 September 2019
Orbit: 554 x 2937 km, 32.9° (Epoch: 14 October)

Event Time Altitude Azimuth Distance (km) Brightness Sun altitude
Rises 09:50:03 0° 327° (NNW) 2,960 10.4 59.2°
Reaches altitude 10° 09:53:05 10° 346° (NNW) 1,892 9.6 60.0°
Maximum altitude 09:56:00 18° 32° (NNE) 1,368 9.4 60.7°
Drops below altitude 10° 09:58:49 10° 78° (ENE) 1,834 10.1 61.4°
Sets 10:01:42 0° 98° (E) 2,832 10.9 62.1°
